• In Latvia
  • List of Countries
  • For 7 days
  • Water Temperature
  • Satellite Maps
  • Weather Map
  • Weather Widgets
  • user-avatar
    Login

    Hourly Weather Punakha

    Today, 21 June, Thursday

    Time Temperature Precipitation Wind Pressure Humidity
    00:00 +20°C° 0 mm 1 mps 583 mmHg 88%
    01:00 +19°C° 0 mm 1 mps 583 mmHg 87%
    02:00 +19°C° 0 mm 1 mps 583 mmHg 87%
    03:00 +19°C° 0 mm 1 mps 583 mmHg 87%
    04:00 +19°C° 0 mm 1 mps 583 mmHg 85%
    05:00 +17°C° 0 mm 0 mps 583 mmHg 82%
    06:00 +20°C° 0 mm 1 mps 584 mmHg 77%
    07:00 +22°C° 0 mm 1 mps 585 mmHg 72%
    08:00 +23°C° 0 mm 1 mps 585 mmHg 67%
    09:00 +24°C° 0 mm 2 mps 585 mmHg 61%
    10:00 +26°C° 0 mm 2 mps 585 mmHg 59%
    11:00 +27°C° 0 mm 2 mps 586 mmHg 56%
    12:00 +28°C° 0 mm 3 mps 586 mmHg 53%
    13:00 +28°C° 0.1 mm 3 mps 585 mmHg 57%
    14:00 +27°C° 0.1 mm 3 mps 584 mmHg 61%
    15:00 +26°C° 0.1 mm 3 mps 583 mmHg 65%
    16:00 +25°C° 0.1 mm 2 mps 583 mmHg 71%
    17:00 +24°C° 0.1 mm 2 mps 582 mmHg 76%
    18:00 +23°C° 0.1 mm 2 mps 582 mmHg 82%
    19:00 +22°C° 0 mm 1 mps 582 mmHg 86%
    20:00 +21°C° 0 mm 1 mps 582 mmHg 90%
    21:00 +20°C° 0 mm 1 mps 582 mmHg 94%
    22:00 +20°C° 0 mm 1 mps 582 mmHg 92%
    23:00 +18°C° 0 mm 0 mps 582 mmHg 91%

    Tomorrow, 22 June, Friday

    Time Temperature Precipitation Wind Pressure Humidity
    00:00 +18°C° 0 mm 0 mps 582 mmHg 89%
    01:00 +18°C° 0 mm 0 mps 582 mmHg 88%
    02:00 +17°C° 0 mm 0 mps 582 mmHg 88%
    03:00 +17°C° 0 mm 0 mps 582 mmHg 87%
    04:00 +17°C° 0 mm 0 mps 582 mmHg 85%
    05:00 +18°C° 0 mm 0 mps 582 mmHg 83%
    06:00 +18°C° 0 mm 0 mps 583 mmHg 81%
    07:00 +21°C° 0 mm 1 mps 583 mmHg 75%
    08:00 +23°C° 0 mm 1 mps 584 mmHg 69%
    09:00 +25°C° 0 mm 2 mps 585 mmHg 63%
    10:00 +26°C° 0 mm 2 mps 585 mmHg 60%
    11:00 +27°C° 0 mm 2 mps 585 mmHg 57%
    12:00 +28°C° 0 mm 3 mps 585 mmHg 54%
    13:00 +27°C° 0.1 mm 3 mps 584 mmHg 59%
    14:00 +27°C° 0.1 mm 3 mps 584 mmHg 64%
    15:00 +26°C° 0.1 mm 3 mps 583 mmHg 69%
    16:00 +25°C° 0.1 mm 2 mps 582 mmHg 74%
    17:00 +24°C° 0.1 mm 2 mps 582 mmHg 79%
    18:00 +23°C° 0.1 mm 2 mps 581 mmHg 83%
    19:00 +22°C° 0.1 mm 1 mps 581 mmHg 87%
    20:00 +22°C° 0.1 mm 1 mps 582 mmHg 90%
    21:00 +21°C° 0.1 mm 1 mps 582 mmHg 93%
    22:00 +21°C° 0 mm 1 mps 582 mmHg 93%
    23:00 +20°C° 0 mm 1 mps 582 mmHg 93%

    Day after tomorrow, 23 June, Saturday

    Time Temperature Precipitation Wind Pressure Humidity
    00:00 +20°C° 0 mm 1 mps 582 mmHg 93%
    01:00 +20°C° 0 mm 1 mps 582 mmHg 92%
    02:00 +17°C° 0 mm 0 mps 581 mmHg 91%
    03:00 +17°C° 0 mm 0 mps 581 mmHg 90%
    04:00 +17°C° 0 mm 0 mps 581 mmHg 88%
    05:00 +18°C° 0 mm 0 mps 582 mmHg 86%
    06:00 +18°C° 0 mm 0 mps 582 mmHg 83%
    07:00 +22°C° 0 mm 1 mps 583 mmHg 76%
    08:00 +24°C° 0 mm 1 mps 583 mmHg 68%
    09:00 +25°C° 0 mm 2 mps 584 mmHg 61%
    10:00 +26°C° 0 mm 2 mps 584 mmHg 59%
    11:00 +27°C° 0 mm 2 mps 584 mmHg 57%
    12:00 +28°C° 0 mm 3 mps 584 mmHg 56%
    13:00 +28°C° 0.1 mm 3 mps 584 mmHg 60%
    14:00 +27°C° 0.1 mm 3 mps 583 mmHg 64%
    15:00 +26°C° 0.1 mm 3 mps 582 mmHg 68%
    16:00 +25°C° 0.1 mm 3 mps 582 mmHg 75%
    17:00 +24°C° 0.1 mm 2 mps 581 mmHg 81%
    18:00 +23°C° 0.1 mm 2 mps 580 mmHg 88%
    19:00 +22°C° 0 mm 1 mps 581 mmHg 90%
    20:00 +22°C° 0 mm 1 mps 581 mmHg 93%
    21:00 +21°C° 0 mm 1 mps 582 mmHg 95%
    22:00 +21°C° 0 mm 1 mps 581 mmHg 94%
    23:00 +21°C° 0 mm 1 mps 581 mmHg 94%

    24 June, Sunday

    Time Temperature Precipitation Wind Pressure Humidity
    00:00 +20°C° 0 mm 1 mps 581 mmHg 93%
    01:00 +20°C° 0 mm 1 mps 581 mmHg 92%
    02:00 +20°C° 0 mm 1 mps 581 mmHg 91%
    03:00 +18°C° 0 mm 0 mps 581 mmHg 90%
    04:00 +18°C° 0 mm 0 mps 581 mmHg 89%
    05:00 +18°C° 0 mm 0 mps 581 mmHg 87%
    06:00 +18°C° 0 mm 0 mps 581 mmHg 86%
    07:00 +22°C° 0 mm 1 mps 582 mmHg 78%
    08:00 +24°C° 0 mm 1 mps 583 mmHg 70%
    09:00 +25°C° 0 mm 2 mps 584 mmHg 62%
    10:00 +26°C° 0.1 mm 2 mps 584 mmHg 63%
    11:00 +26°C° 0.1 mm 2 mps 583 mmHg 64%
    12:00 +26°C° 0.1 mm 3 mps 583 mmHg 65%
    13:00 +26°C° 0.1 mm 3 mps 583 mmHg 66%
    14:00 +26°C° 0.1 mm 3 mps 582 mmHg 67%
    15:00 +26°C° 0.1 mm 3 mps 582 mmHg 68%
    16:00 +25°C° 0 mm 2 mps 581 mmHg 73%
    17:00 +24°C° 0 mm 2 mps 581 mmHg 78%
    18:00 +23°C° 0 mm 2 mps 581 mmHg 83%
    19:00 +21°C° 0.1 mm 2 mps 581 mmHg 87%
    20:00 +22°C° 0.1 mm 1 mps 581 mmHg 91%
    21:00 +21°C° 0.1 mm 1 mps 581 mmHg 95%
    22:00 +21°C° 0.1 mm 1 mps 581 mmHg 95%
    23:00 +21°C° 0.1 mm 1 mps 581 mmHg 94%

    25 June, Monday

    Time Temperature Precipitation Wind Pressure Humidity
    00:00 +18°C° 0.1 mm 0 mps 581 mmHg 93%
    01:00 +18°C° 0.1 mm 0 mps 581 mmHg 93%
    02:00 +18°C° 0.1 mm 0 mps 581 mmHg 93%
    03:00 +17°C° 0.1 mm 0 mps 580 mmHg 93%
    04:00 +18°C° 0.2 mm 0 mps 581 mmHg 91%
    05:00 +18°C° 0.2 mm 0 mps 581 mmHg 88%
    06:00 +18°C° 0.2 mm 0 mps 581 mmHg 86%
    07:00 +22°C° 0.1 mm 1 mps 582 mmHg 80%
    08:00 +23°C° 0.1 mm 1 mps 583 mmHg 75%
    09:00 +24°C° 0.1 mm 2 mps 583 mmHg 69%
    10:00 +25°C° 0.1 mm 2 mps 583 mmHg 67%
    11:00 +26°C° 0.1 mm 2 mps 583 mmHg 64%
    12:00 +27°C° 0.1 mm 3 mps 583 mmHg 62%
    13:00 +27°C° 0.1 mm 3 mps 583 mmHg 64%
    14:00 +26°C° 0.1 mm 2 mps 582 mmHg 66%
    15:00 +26°C° 0.1 mm 2 mps 581 mmHg 69%
    16:00 +25°C° 0.1 mm 2 mps 581 mmHg 73%
    17:00 +25°C° 0.1 mm 2 mps 581 mmHg 77%
    18:00 +24°C° 0.1 mm 2 mps 580 mmHg 81%
    19:00 +23°C° 0.1 mm 2 mps 581 mmHg 85%
    20:00 +22°C° 0.1 mm 1 mps 581 mmHg 89%
    21:00 +21°C° 0.1 mm 1 mps 581 mmHg 94%
    22:00 +21°C° 0.1 mm 1 mps 581 mmHg 94%
    23:00 +21°C° 0.1 mm 1 mps 581 mmHg 94%

    26 June, Tuesday

    Time Temperature Precipitation Wind Pressure Humidity
    00:00 +19°C° 0.1 mm 0 mps 581 mmHg 95%
    01:00 +18°C° 0.1 mm 0 mps 581 mmHg 95%
    02:00 +18°C° 0.1 mm 0 mps 581 mmHg 95%
    03:00 +18°C° 0.1 mm 0 mps 580 mmHg 95%
    04:00 +18°C° 0.1 mm 0 mps 581 mmHg 92%
    05:00 +18°C° 0.1 mm 0 mps 581 mmHg 89%
    06:00 +18°C° 0.1 mm 0 mps 581 mmHg 87%
    07:00 +22°C° 0 mm 1 mps 582 mmHg 80%
    08:00 +24°C° 0 mm 1 mps 583 mmHg 73%
    09:00 +25°C° 0 mm 2 mps 584 mmHg 67%
    10:00 +25°C° 0.2 mm 2 mps 583 mmHg 69%
    11:00 +25°C° 0.2 mm 2 mps 583 mmHg 71%
    12:00 +25°C° 0.2 mm 3 mps 582 mmHg 73%
    13:00 +25°C° 0.2 mm 2 mps 582 mmHg 73%
    14:00 +25°C° 0.2 mm 2 mps 582 mmHg 73%
    15:00 +25°C° 0.2 mm 2 mps 582 mmHg 72%
    16:00 +24°C° 0.1 mm 2 mps 581 mmHg 76%
    17:00 +24°C° 0.1 mm 2 mps 581 mmHg 80%
    18:00 +23°C° 0.1 mm 2 mps 581 mmHg 83%
    19:00 +21°C° 0.1 mm 2 mps 581 mmHg 87%
    20:00 +22°C° 0.1 mm 1 mps 582 mmHg 91%
    21:00 +21°C° 0.1 mm 1 mps 582 mmHg 95%
    22:00 +21°C° 0 mm 1 mps 582 mmHg 94%
    23:00 +20°C° 0 mm 1 mps 582 mmHg 93%
    Show more